Time,TemperatureF,DewpointF,PressureIn,WindDirection,WindDirectionDegrees,WindSpeedMPH,WindSpeedGustMPH,Humidity,HourlyPrecipIn,Conditions,Clouds,dailyrainin,SoftwareType,DateUTC
2013-04-20 00:04:00,35.1,23.8,30.09,North,8,0.0,0.0,63,0.00,,---,0.00,VWS V13.00,2013-04-20 08:04:00,
2013-04-20 00:09:00,34.7,23.0,30.09,North,0,0.0,0.0,62,0.00,,---,0.00,VWS V13.00,2013-04-20 08:09:00,
2013-04-20 00:14:00,34.5,22.9,30.09,North,0,0.0,0.0,62,0.00,,---,0.00,VWS V13.00,2013-04-20 08:14:00,
2013-04-20 00:19:00,34.5,22.9,30.09,North,357,0.0,0.0,62,0.00,,---,0.00,VWS V13.00,2013-04-20 08:19:00,
2013-04-20 00:24:00,34.5,23.2,30.09,North,357,0.0,0.0,63,0.00,,---,0.00,VWS V13.00,2013-04-20 08:24:00,
2013-04-20 00:29:00,34.7,23.4,30.09,North,357,0.0,0.0,63,0.00,,---,0.00,VWS V13.00,2013-04-20 08:29:00,
2013-04-20 00:34:00,34.5,22.9,30.09,North,357,0.0,0.0,62,0.00,,---,0.00,VWS V13.00,2013-04-20 08:34:00,
2013-04-20 00:39:00,34.3,22.7,30.09,North,0,0.0,0.0,62,0.00,,---,0.00,VWS V13.00,2013-04-20 08:39:00,
2013-04-20 00:44:00,34.2,22.1,30.09,NE,47,0.0,0.0,61,0.00,,---,0.00,VWS V13.00,2013-04-20 08:44:00,
2013-04-20 00:49:00,34.0,22.0,30.09,NNE,20,0.0,0.0,61,0.00,,---,0.00,VWS V13.00,2013-04-20 08:49:00,
2013-04-20 00:54:00,33.8,21.8,30.09,North,3,0.0,0.0,61,0.00,,---,0.00,VWS V13.00,2013-04-20 08:54:00,
2013-04-20 00:59:00,34.0,22.0,30.09,North,3,0.0,0.0,61,0.00,,---,0.00,VWS V13.00,2013-04-20 08:59:00,
2013-04-20 01:04:00,34.0,22.0,30.09,North,2,0.0,0.0,61,0.00,,---,0.00,VWS V13.00,2013-04-20 09:04:00,
2013-04-20 01:09:00,34.0,22.0,30.09,North,2,0.0,0.0,61,0.00,,---,0.00,VWS V13.00,2013-04-20 09:09:00,
2013-04-20 01:14:00,34.0,22.0,30.09,North,2,0.0,0.0,61,0.00,,---,0.00,VWS V13.00,2013-04-20 09:14:00,
2013-04-20 01:19:00,33.8,21.8,30.09,North,2,0.0,0.0,61,0.00,,---,0.00,VWS V13.00,2013-04-20 09:19:00,
2013-04-20 01:24:00,33.8,21.4,30.09,North,2,0.0,0.0,60,0.00,,---,0.00,VWS V13.00,2013-04-20 09:24:00,
2013-04-20 01:29:00,33.8,21.8,30.09,NE,50,0.0,0.0,61,0.00,,---,0.00,VWS V13.00,2013-04-20 09:29:00,
2013-04-20 01:34:00,33.8,21.8,30.09,NE,50,0.0,0.0,61,0.00,,---,0.00,VWS V13.00,2013-04-20 09:34:00,
2013-04-20 01:39:00,33.8,21.8,30.09,NE,50,0.0,0.0,61,0.00,,---,0.00,VWS V13.00,2013-04-20 09:39:00,
2013-04-20 01:44:00,34.0,22.0,30.09,NE,50,0.0,0.0,61,0.00,,---,0.00,VWS V13.00,2013-04-20 09:44:00,
2013-04-20 01:49:00,34.0,22.0,30.09,NE,50,0.0,0.0,61,0.00,,---,0.00,VWS V13.00,2013-04-20 09:49:00,
2013-04-20 01:54:00,34.2,22.1,30.09,NE,50,0.0,0.0,61,0.00,,---,0.00,VWS V13.00,2013-04-20 09:54:00,
2013-04-20 01:59:00,34.2,22.1,30.09,NE,50,0.0,0.0,61,0.00,,---,0.00,VWS V13.00,2013-04-20 09:59:00,
2013-04-20 02:04:00,34.2,22.1,30.09,NE,50,0.0,0.0,61,0.00,,---,0.00,VWS V13.00,2013-04-20 10:04:00,
2013-04-20 02:09:00,34.2,22.1,30.09,NE,50,0.0,0.0,61,0.00,,---,0.00,VWS V13.00,2013-04-20 10:09:00,
2013-04-20 02:14:00,34.2,22.1,30.09,NE,50,0.0,0.0,61,0.00,,---,0.00,VWS V13.00,2013-04-20 10:14:00,
2013-04-20 02:19:00,34.0,22.0,30.09,NE,50,0.0,0.0,61,0.00,,---,0.00,VWS V13.00,2013-04-20 10:19:00,
2013-04-20 02:24:00,34.0,22.0,30.09,NE,50,0.0,0.0,61,0.00,,---,0.00,VWS V13.00,2013-04-20 10:24:00,
2013-04-20 02:29:00,34.0,22.0,30.09,NE,50,0.0,0.0,61,0.00,,---,0.00,VWS V13.00,2013-04-20 10:29:00,
2013-04-20 02:34:00,34.0,22.0,30.09,NE,50,0.0,0.0,61,0.00,,---,0.00,VWS V13.00,2013-04-20 10:34:00,
2013-04-20 02:39:00,34.0,22.0,30.09,NE,50,0.0,0.0,61,0.00,,---,0.00,VWS V13.00,2013-04-20 10:39:00,
2013-04-20 02:44:00,34.3,22.3,30.09,NE,50,0.0,0.0,61,0.00,,---,0.00,VWS V13.00,2013-04-20 10:44:00,
2013-04-20 02:49:00,34.5,22.5,30.12,NE,50,0.0,0.0,61,0.00,,---,0.00,VWS V13.00,2013-04-20 10:49:00,
2013-04-20 02:54:00,34.5,22.5,30.12,NE,51,0.0,0.0,61,0.00,,---,0.00,VWS V13.00,2013-04-20 10:54:00,
2013-04-20 02:59:00,34.5,22.5,30.12,East,91,0.0,0.0,61,0.00,,---,0.00,VWS V13.00,2013-04-20 10:59:00,
2013-04-20 03:04:00,34.5,22.5,30.12,East,91,0.0,0.0,61,0.00,,---,0.00,VWS V13.00,2013-04-20 11:04:00,
2013-04-20 03:09:00,34.7,23.0,30.12,East,91,0.0,0.0,62,0.00,,---,0.00,VWS V13.00,2013-04-20 11:09:00,
2013-04-20 03:14:00,34.9,22.8,30.12,SSW,193,0.0,0.0,61,0.00,,---,0.00,VWS V13.00,2013-04-20 11:14:00,
2013-04-20 03:19:00,34.9,22.8,30.09,SSW,193,0.0,0.0,61,0.00,,---,0.00,VWS V13.00,2013-04-20 11:19:00,
2013-04-20 03:24:00,35.1,23.0,30.09,ENE,57,0.0,0.0,61,0.00,,---,0.00,VWS V13.00,2013-04-20 11:24:00,
2013-04-20 03:29:00,35.1,22.6,30.09,ENE,57,0.0,0.0,60,0.00,,---,0.00,VWS V13.00,2013-04-20 11:29:00,
2013-04-20 03:34:00,35.1,22.2,30.09,ENE,65,0.0,0.0,59,0.00,,---,0.00,VWS V13.00,2013-04-20 11:34:00,
2013-04-20 03:39:00,35.2,22.4,30.09,SE,141,0.0,0.0,59,0.00,,---,0.00,VWS V13.00,2013-04-20 11:39:00,
2013-04-20 03:44:00,35.4,22.1,30.09,East,97,0.0,0.0,58,0.00,,---,0.00,VWS V13.00,2013-04-20 11:44:00,
2013-04-20 03:49:00,35.8,20.8,30.09,East,90,0.0,0.0,54,0.00,,---,0.00,VWS V13.00,2013-04-20 11:49:00,
2013-04-20 03:54:00,36.0,21.0,30.09,ENE,75,0.0,0.0,54,0.00,,---,0.00,VWS V13.00,2013-04-20 11:54:00,
2013-04-20 03:59:00,36.1,20.2,30.09,ESE,104,0.0,0.0,52,0.00,,---,0.00,VWS V13.00,2013-04-20 11:59:00,
2013-04-20 04:04:00,36.1,20.2,30.09,ENE,65,0.0,0.0,52,0.00,,---,0.00,VWS V13.00,2013-04-20 12:04:00,
2013-04-20 04:09:00,36.1,19.8,30.09,ENE,68,0.0,0.0,51,0.00,,---,0.00,VWS V13.00,2013-04-20 12:09:00,
2013-04-20 04:14:00,36.1,19.8,30.09,East,85,0.0,0.0,51,0.00,,---,0.00,VWS V13.00,2013-04-20 12:14:00,
2013-04-20 04:19:00,36.0,19.6,30.09,NE,46,0.0,0.0,51,0.00,,---,0.00,VWS V13.00,2013-04-20 12:19:00,
2013-04-20 04:24:00,35.8,19.0,30.09,SE,131,0.0,0.0,50,0.00,,---,0.00,VWS V13.00,2013-04-20 12:24:00,
2013-04-20 04:29:00,35.6,18.8,30.09,SE,131,0.0,0.0,50,0.00,,---,0.00,VWS V13.00,2013-04-20 12:29:00,
2013-04-20 04:47:00,34.3,18.1,30.12,SE,131,0.0,0.0,51,0.00,,---,0.00,VWS V13.00,2013-04-20 12:47:00,
2013-04-20 04:52:00,34.0,18.2,30.12,NE,56,0.0,0.0,52,0.00,,---,0.00,VWS V13.00,2013-04-20 12:52:00,
2013-04-20 04:57:00,33.8,18.0,30.12,NE,53,0.0,0.0,52,0.00,,---,0.00,VWS V13.00,2013-04-20 12:57:00,
2013-04-20 05:02:00,33.6,18.3,30.12,NE,52,0.0,0.0,53,0.00,,---,0.00,VWS V13.00,2013-04-20 13:02:00,
2013-04-20 05:07:00,33.8,18.5,30.12,SE,142,0.0,0.0,53,0.00,,---,0.00,VWS V13.00,2013-04-20 13:07:00,
2013-04-20 05:12:00,33.8,18.5,30.12,SE,142,0.0,0.0,53,0.00,,---,0.00,VWS V13.00,2013-04-20 13:12:00,
2013-04-20 05:17:00,33.8,18.5,30.12,SE,142,0.0,0.0,53,0.00,,---,0.00,VWS V13.00,2013-04-20 13:17:00,
2013-04-20 05:22:00,34.2,19.3,30.12,SE,142,0.0,0.0,54,0.00,,---,0.00,VWS V13.00,2013-04-20 13:22:00,
2013-04-20 05:27:00,34.5,19.6,30.12,SE,142,0.0,0.0,54,0.00,,---,0.00,VWS V13.00,2013-04-20 13:27:00,
2013-04-20 05:32:00,34.5,19.6,30.12,SE,142,0.0,0.0,54,0.00,,---,0.00,VWS V13.00,2013-04-20 13:32:00,
2013-04-20 05:37:00,34.5,19.6,30.12,SE,142,0.0,0.0,54,0.00,,---,0.00,VWS V13.00,2013-04-20 13:37:00,
2013-04-20 05:42:00,34.5,19.6,30.12,SE,142,0.0,0.0,54,0.00,,---,0.00,VWS V13.00,2013-04-20 13:42:00,
2013-04-20 05:47:00,34.3,19.4,30.09,SE,142,0.0,0.0,54,0.00,,---,0.00,VWS V13.00,2013-04-20 13:47:00,
2013-04-20 05:52:00,34.3,19.4,30.09,SE,142,0.0,0.0,54,0.00,,---,0.00,VWS V13.00,2013-04-20 13:52:00,
2013-04-20 05:57:00,34.5,19.6,30.09,SE,142,0.0,0.0,54,0.00,,---,0.00,VWS V13.00,2013-04-20 13:57:00,
2013-04-20 06:02:00,34.5,19.6,30.09,SE,142,0.0,0.0,54,0.00,,---,0.00,VWS V13.00,2013-04-20 14:02:00,
2013-04-20 06:07:00,34.5,19.6,30.09,SE,142,0.0,0.0,54,0.00,,---,0.00,VWS V13.00,2013-04-20 14:07:00,
2013-04-20 06:12:00,34.5,20.0,30.09,SSE,166,0.0,0.0,55,0.00,,---,0.00,VWS V13.00,2013-04-20 14:12:00,
2013-04-20 06:17:00,34.5,19.6,30.09,SSE,166,0.0,0.0,54,0.00,,---,0.00,VWS V13.00,2013-04-20 14:17:00,
2013-04-20 06:22:00,34.3,19.9,30.09,ESE,115,0.0,0.0,55,0.00,,---,0.00,VWS V13.00,2013-04-20 14:22:00,
2013-04-20 06:27:00,34.5,19.6,30.09,East,91,0.0,0.0,54,0.00,,---,0.00,VWS V13.00,2013-04-20 14:27:00,
2013-04-20 06:32:00,34.7,19.8,30.09,ENE,62,0.0,0.0,54,0.00,,---,0.00,VWS V13.00,2013-04-20 14:32:00,
2013-04-20 06:37:00,35.1,20.1,30.09,ENE,75,0.0,0.0,54,0.00,,---,0.00,VWS V13.00,2013-04-20 14:37:00,
2013-04-20 06:42:00,35.4,19.1,30.09,SSE,147,0.0,0.0,51,0.00,,---,0.00,VWS V13.00,2013-04-20 14:42:00,
2013-04-20 06:47:00,35.8,18.5,30.09,ENE,75,0.0,0.0,49,0.00,,---,0.00,VWS V13.00,2013-04-20 14:47:00,
2013-04-20 06:52:00,36.1,18.4,30.09,ENE,73,0.0,0.0,48,0.00,,---,0.00,VWS V13.00,2013-04-20 14:52:00,
2013-04-20 06:57:00,36.1,18.4,30.09,East,99,0.0,0.0,48,0.00,,---,0.00,VWS V13.00,2013-04-20 14:57:00,
2013-04-20 07:02:00,36.1,17.9,30.09,East,96,0.0,0.0,47,0.00,,---,0.00,VWS V13.00,2013-04-20 15:02:00,
2013-04-20 07:07:00,36.3,17.5,30.09,ENE,72,0.0,0.0,46,0.00,,---,0.00,VWS V13.00,2013-04-20 15:07:00,
2013-04-20 07:12:00,36.3,17.5,30.09,East,79,0.0,0.0,46,0.00,,---,0.00,VWS V13.00,2013-04-20 15:12:00,
2013-04-20 07:17:00,36.1,17.4,30.09,ENE,78,0.0,0.0,46,0.00,,---,0.00,VWS V13.00,2013-04-20 15:17:00,
2013-04-20 07:22:00,36.1,17.4,30.09,ENE,61,0.0,0.0,46,0.00,,---,0.00,VWS V13.00,2013-04-20 15:22:00,
2013-04-20 07:27:00,36.1,17.4,30.09,ESE,114,0.0,0.0,46,0.00,,---,0.00,VWS V13.00,2013-04-20 15:27:00,
2013-04-20 07:32:00,36.1,16.9,30.09,ESE,123,0.0,0.0,45,0.00,,---,0.00,VWS V13.00,2013-04-20 15:32:00,
2013-04-20 07:37:00,36.3,17.0,30.09,East,85,0.0,0.0,45,0.00,,---,0.00,VWS V13.00,2013-04-20 15:37:00,
2013-04-20 07:42:00,36.3,17.0,30.09,ENE,68,0.0,0.0,45,0.00,,---,0.00,VWS V13.00,2013-04-20 15:42:00,
2013-04-20 07:47:00,36.3,17.0,30.12,SSE,164,0.0,0.0,45,0.00,,---,0.00,VWS V13.00,2013-04-20 15:47:00,
2013-04-20 07:52:00,36.3,17.0,30.12,East,80,0.0,0.0,45,0.00,,---,0.00,VWS V13.00,2013-04-20 15:52:00,
2013-04-20 07:57:00,36.3,17.0,30.12,ENE,68,0.0,0.0,45,0.00,,---,0.00,VWS V13.00,2013-04-20 15:57:00,
2013-04-20 08:02:00,36.5,16.7,30.12,ENE,77,0.0,0.0,44,0.00,,---,0.00,VWS V13.00,2013-04-20 16:02:00,
2013-04-20 08:07:00,36.5,16.7,30.12,East,79,0.0,0.0,44,0.00,,---,0.00,VWS V13.00,2013-04-20 16:07:00,
2013-04-20 08:12:00,36.3,16.5,30.12,ENE,67,0.0,0.0,44,0.00,,---,0.00,VWS V13.00,2013-04-20 16:12:00,
2013-04-20 08:17:00,36.5,16.7,30.12,ENE,70,0.0,0.0,44,0.00,,---,0.00,VWS V13.00,2013-04-20 16:17:00,
2013-04-20 08:22:00,36.5,16.7,30.12,ENE,77,0.0,0.0,44,0.00,,---,0.00,VWS V13.00,2013-04-20 16:22:00,
2013-04-20 08:27:00,36.5,16.7,30.12,ESE,117,0.0,0.0,44,0.00,,---,0.00,VWS V13.00,2013-04-20 16:27:00,
2013-04-20 08:32:00,36.7,16.8,30.12,East,89,0.0,0.0,44,0.00,,---,0.00,VWS V13.00,2013-04-20 16:32:00,
2013-04-20 08:37:00,36.7,16.8,30.12,NE,53,0.0,0.0,44,0.00,,---,0.00,VWS V13.00,2013-04-20 16:37:00,
2013-04-20 08:42:00,36.7,16.8,30.12,SSE,155,0.0,0.0,44,0.00,,---,0.00,VWS V13.00,2013-04-20 16:42:00,
2013-04-20 08:47:00,36.7,16.8,30.12,ENE,69,0.0,0.0,44,0.00,,---,0.00,VWS V13.00,2013-04-20 16:47:00,
2013-04-20 08:52:00,36.9,17.0,30.12,SE,134,0.0,0.0,44,0.00,,---,0.00,VWS V13.00,2013-04-20 16:52:00,
2013-04-20 08:57:00,36.9,17.0,30.12,East,97,0.0,0.0,44,0.00,,---,0.00,VWS V13.00,2013-04-20 16:57:00,
2013-04-20 09:02:00,37.0,17.2,30.12,East,92,0.0,0.0,44,0.00,,---,0.00,VWS V13.00,2013-04-20 17:02:00,
2013-04-20 09:07:00,37.0,17.2,30.12,East,94,0.0,0.0,44,0.00,,---,0.00,VWS V13.00,2013-04-20 17:07:00,
2013-04-20 09:12:00,37.0,17.2,30.12,SSE,166,0.0,0.0,44,0.00,,---,0.00,VWS V13.00,2013-04-20 17:12:00,
2013-04-20 09:17:00,37.2,18.9,30.12,South,179,0.0,0.0,47,0.00,,---,0.00,VWS V13.00,2013-04-20 17:17:00,
2013-04-20 09:22:00,37.2,18.9,30.12,SSW,208,0.0,0.0,47,0.00,,---,0.00,VWS V13.00,2013-04-20 17:22:00,
2013-04-20 09:27:00,37.2,19.8,30.12,ESE,121,0.0,0.0,49,0.00,,---,0.00,VWS V13.00,2013-04-20 17:27:00,
2013-04-20 09:32:00,37.2,19.4,30.12,SSW,210,0.0,0.0,48,0.00,,---,0.00,VWS V13.00,2013-04-20 17:32:00,
2013-04-20 09:37:00,37.4,19.5,30.12,South,183,0.0,0.0,48,0.00,,---,0.00,VWS V13.00,2013-04-20 17:37:00,
2013-04-20 09:42:00,37.4,19.5,30.12,ESE,121,0.0,0.0,48,0.00,,---,0.00,VWS V13.00,2013-04-20 17:42:00,
2013-04-20 09:47:00,37.6,19.7,30.12,SE,134,0.0,0.0,48,0.00,,---,0.00,VWS V13.00,2013-04-20 17:47:00,
2013-04-20 09:52:00,37.6,19.2,30.12,South,171,0.0,0.0,47,0.00,,---,0.00,VWS V13.00,2013-04-20 17:52:00,
2013-04-20 09:57:00,37.8,19.4,30.12,NE,36,0.0,0.0,47,0.00,,---,0.00,VWS V13.00,2013-04-20 17:57:00,
2013-04-20 10:02:00,38.1,18.7,30.12,SE,142,0.0,0.0,45,0.00,,---,0.00,VWS V13.00,2013-04-20 18:02:00,
2013-04-20 10:07:00,38.3,18.3,30.12,SE,135,0.0,0.0,44,0.00,,---,0.00,VWS V13.00,2013-04-20 18:07:00,
2013-04-20 10:12:00,39.0,19.5,30.12,SSE,147,0.0,0.0,45,0.00,,---,0.00,VWS V13.00,2013-04-20 18:12:00,
2013-04-20 10:17:00,39.9,19.2,30.12,East,88,0.0,0.0,43,0.00,,---,0.00,VWS V13.00,2013-04-20 18:17:00,
2013-04-20 10:22:00,40.6,19.4,30.12,SE,131,0.0,0.0,42,0.00,,---,0.00,VWS V13.00,2013-04-20 18:22:00,
2013-04-20 10:27:00,40.8,19.0,30.12,SE,146,0.0,0.0,41,0.00,,---,0.00,VWS V13.00,2013-04-20 18:27:00,
2013-04-20 10:32:00,41.0,18.5,30.12,ENE,78,0.0,0.0,40,0.00,,---,0.00,VWS V13.00,2013-04-20 18:32:00,
2013-04-20 10:37:00,40.8,18.4,30.12,SE,124,0.0,0.0,40,0.00,,---,0.00,VWS V13.00,2013-04-20 18:37:00,
2013-04-20 10:42:00,40.6,18.2,30.12,SSE,150,0.0,0.0,40,0.00,,---,0.00,VWS V13.00,2013-04-20 18:42:00,
2013-04-20 10:47:00,40.8,18.4,30.12,SSE,164,0.0,0.0,40,0.00,,---,0.00,VWS V13.00,2013-04-20 18:47:00,
2013-04-20 10:52:00,40.8,18.4,30.12,SE,133,0.0,0.0,40,0.00,,---,0.00,VWS V13.00,2013-04-20 18:52:00,
2013-04-20 10:57:00,40.3,18.5,30.12,ESE,117,0.0,0.0,41,0.00,,---,0.00,VWS V13.00,2013-04-20 18:57:00,
2013-04-20 11:02:00,40.5,18.6,30.12,NE,35,0.0,0.0,41,0.00,,---,0.00,VWS V13.00,2013-04-20 19:02:00,
2013-04-20 11:07:00,39.9,18.1,30.12,SSE,155,0.0,0.0,41,0.00,,---,0.00,VWS V13.00,2013-04-20 19:07:00,
2013-04-20 11:12:00,40.5,19.2,30.12,ENE,77,0.0,0.0,42,0.00,,---,0.00,VWS V13.00,2013-04-20 19:12:00,
2013-04-20 11:17:00,40.3,18.5,30.12,SSE,153,0.0,0.0,41,0.00,,---,0.00,VWS V13.00,2013-04-20 19:17:00,
2013-04-20 11:22:00,40.1,18.3,30.12,SE,137,0.0,0.0,41,0.00,,---,0.00,VWS V13.00,2013-04-20 19:22:00,
2013-04-20 11:27:00,40.5,18.6,30.12,ESE,115,0.0,0.0,41,0.00,,---,0.00,VWS V13.00,2013-04-20 19:27:00,
2013-04-20 11:32:00,40.6,18.2,30.12,SSE,150,0.0,0.0,40,0.00,,---,0.00,VWS V13.00,2013-04-20 19:32:00,
2013-04-20 11:37:00,40.8,18.4,30.12,SSE,166,0.0,0.0,40,0.00,,---,0.00,VWS V13.00,2013-04-20 19:37:00,
2013-04-20 11:42:00,41.0,18.5,30.12,ESE,107,0.0,0.0,40,0.00,,---,0.00,VWS V13.00,2013-04-20 19:42:00,
2013-04-20 11:47:00,41.0,19.1,30.12,ESE,116,0.0,0.0,41,0.00,,---,0.00,VWS V13.00,2013-04-20 19:47:00,
2013-04-20 11:52:00,40.6,18.8,30.12,East,99,0.0,0.0,41,0.00,,---,0.00,VWS V13.00,2013-04-20 19:52:00,
2013-04-20 11:57:00,40.6,18.8,30.12,SE,136,0.0,0.0,41,0.00,,---,0.00,VWS V13.00,2013-04-20 19:57:00,
2013-04-20 12:02:00,40.6,18.8,30.12,SE,144,0.0,0.0,41,0.00,,---,0.00,VWS V13.00,2013-04-20 20:02:00,
2013-04-20 12:07:00,40.5,19.2,30.12,SE,127,0.0,0.0,42,0.00,,---,0.00,VWS V13.00,2013-04-20 20:07:00,
2013-04-20 12:12:00,40.3,19.0,30.12,ENE,64,0.0,0.0,42,0.00,,---,0.00,VWS V13.00,2013-04-20 20:12:00,
2013-04-20 12:17:00,39.6,18.4,30.12,East,80,0.0,0.0,42,0.00,,---,0.00,VWS V13.00,2013-04-20 20:17:00,
2013-04-20 12:22:00,39.9,19.2,30.12,ENE,69,0.0,0.0,43,0.00,,---,0.00,VWS V13.00,2013-04-20 20:22:00,
2013-04-20 12:27:00,39.4,19.3,30.12,ESE,116,0.0,0.0,44,0.00,,---,0.00,VWS V13.00,2013-04-20 20:27:00,
2013-04-20 12:32:00,39.6,20.5,30.12,East,94,0.0,0.0,46,0.00,,---,0.00,VWS V13.00,2013-04-20 20:32:00,
2013-04-20 12:37:00,38.8,20.8,30.12,SE,133,0.0,0.0,48,0.00,,---,0.00,VWS V13.00,2013-04-20 20:37:00,
2013-04-20 12:42:00,38.8,24.1,30.12,South,171,0.0,0.0,55,0.00,,---,0.00,VWS V13.00,2013-04-20 20:42:00,
2013-04-20 12:47:00,37.8,25.5,30.12,ENE,73,0.0,0.0,61,0.00,,---,0.00,VWS V13.00,2013-04-20 20:47:00,
2013-04-20 12:52:00,36.9,27.7,30.12,ENE,77,0.0,0.0,69,0.00,,---,0.00,VWS V13.00,2013-04-20 20:52:00,
2013-04-20 12:57:00,36.9,27.7,30.12,East,81,0.0,0.0,69,0.00,,---,0.00,VWS V13.00,2013-04-20 20:57:00,
2013-04-20 13:02:00,36.9,27.7,30.12,SE,124,0.0,0.0,69,0.00,,---,0.00,VWS V13.00,2013-04-20 21:02:00,
2013-04-20 13:07:00,36.3,29.5,30.12,ENE,65,0.0,0.0,76,0.00,,---,0.00,VWS V13.00,2013-04-20 21:07:00,
2013-04-20 13:12:00,35.8,29.6,30.12,East,85,0.0,0.0,78,0.00,,---,0.00,VWS V13.00,2013-04-20 21:12:00,
2013-04-20 13:17:00,35.8,30.5,30.12,ENE,76,0.0,0.0,81,0.00,,---,0.00,VWS V13.00,2013-04-20 21:17:00,
2013-04-20 13:22:00,36.0,30.7,30.12,NE,40,0.0,0.0,81,0.00,,---,0.00,VWS V13.00,2013-04-20 21:22:00,
2013-04-20 13:27:00,36.0,30.7,30.12,East,82,0.0,0.0,81,0.00,,---,0.00,VWS V13.00,2013-04-20 21:27:00,
2013-04-20 13:32:00,35.6,30.0,30.12,ESE,114,0.0,0.0,80,0.00,,---,0.00,VWS V13.00,2013-04-20 21:32:00,
2013-04-20 13:37:00,35.6,30.0,30.12,ESE,104,0.0,0.0,80,0.00,,---,0.00,VWS V13.00,2013-04-20 21:37:00,
2013-04-20 13:42:00,35.4,30.2,30.12,East,79,0.0,0.0,81,0.00,,---,0.00,VWS V13.00,2013-04-20 21:42:00,
2013-04-20 13:47:00,35.4,30.2,30.12,East,81,0.0,0.0,81,0.00,,---,0.00,VWS V13.00,2013-04-20 21:47:00,
2013-04-20 13:52:00,35.8,30.5,30.12,ENE,74,0.0,0.0,81,0.00,,---,0.00,VWS V13.00,2013-04-20 21:52:00,
2013-04-20 13:57:00,36.1,30.9,30.12,ENE,69,0.0,0.0,81,0.00,,---,0.00,VWS V13.00,2013-04-20 21:57:00,
2013-04-20 14:02:00,36.7,31.7,30.12,ENE,69,0.0,0.0,82,0.00,,---,0.00,VWS V13.00,2013-04-20 22:02:00,
2013-04-20 14:07:00,36.7,31.7,30.12,East,85,0.0,0.0,82,0.00,,---,0.00,VWS V13.00,2013-04-20 22:07:00,
2013-04-20 14:12:00,37.2,32.2,30.12,ENE,63,0.0,0.0,82,0.00,,---,0.00,VWS V13.00,2013-04-20 22:12:00,
2013-04-20 14:17:00,37.4,31.2,30.12,ESE,102,0.0,0.0,78,0.00,,---,0.00,VWS V13.00,2013-04-20 22:17:00,
2013-04-20 14:22:00,37.4,30.5,30.12,ENE,60,0.0,0.0,76,0.00,,---,0.00,VWS V13.00,2013-04-20 22:22:00,
2013-04-20 14:27:00,37.2,27.6,30.12,ESE,115,0.0,0.0,68,0.00,,---,0.00,VWS V13.00,2013-04-20 22:27:00,
2013-04-20 14:32:00,37.2,27.6,30.12,ENE,58,0.0,0.0,68,0.00,,---,0.00,VWS V13.00,2013-04-20 22:32:00,
2013-04-20 14:37:00,37.2,26.2,30.12,ENE,58,0.0,0.0,64,0.00,,---,0.00,VWS V13.00,2013-04-20 22:37:00,
2013-04-20 14:42:00,37.2,26.2,30.12,NE,54,0.0,0.0,64,0.00,,---,0.00,VWS V13.00,2013-04-20 22:42:00,
2013-04-20 14:47:00,37.6,25.8,30.12,East,90,0.0,0.0,62,0.00,,---,0.00,VWS V13.00,2013-04-20 22:47:00,
2013-04-20 14:52:00,37.8,25.9,30.12,NE,54,0.0,0.0,62,0.00,,---,0.00,VWS V13.00,2013-04-20 22:52:00,
2013-04-20 14:57:00,37.4,26.4,30.12,South,185,0.0,0.0,64,0.00,,---,0.00,VWS V13.00,2013-04-20 22:57:00,
2013-04-20 15:02:00,37.4,26.4,30.12,SE,135,0.0,0.0,64,0.00,,---,0.00,VWS V13.00,2013-04-20 23:02:00,
2013-04-20 15:07:00,37.4,26.4,30.12,SSE,158,0.0,0.0,64,0.00,,---,0.00,VWS V13.00,2013-04-20 23:07:00,
2013-04-20 15:12:00,37.0,27.5,30.12,SSE,158,0.0,0.0,68,0.00,,---,0.00,VWS V13.00,2013-04-20 23:12:00,
2013-04-20 15:17:00,36.9,27.7,30.12,SE,127,0.0,0.0,69,0.00,,---,0.00,VWS V13.00,2013-04-20 23:17:00,
2013-04-20 15:22:00,36.9,27.7,30.12,SE,124,0.0,0.0,69,0.00,,---,0.00,VWS V13.00,2013-04-20 23:22:00,
2013-04-20 15:27:00,36.5,28.4,30.12,East,81,0.0,0.0,72,0.00,,---,0.00,VWS V13.00,2013-04-20 23:27:00,
2013-04-20 15:32:00,36.3,28.2,30.12,East,81,0.0,0.0,72,0.00,,---,0.00,VWS V13.00,2013-04-20 23:32:00,
2013-04-20 15:37:00,36.5,28.7,30.12,WSW,257,0.0,0.0,73,0.00,,---,0.00,VWS V13.00,2013-04-20 23:37:00,
2013-04-20 15:42:00,36.7,28.9,30.12,SW,222,0.0,0.0,73,0.00,,---,0.00,VWS V13.00,2013-04-20 23:42:00,
2013-04-20 15:47:00,36.7,28.9,30.12,NE,44,0.0,0.0,73,0.00,,---,0.00,VWS V13.00,2013-04-20 23:47:00,
2013-04-20 15:52:00,36.7,28.9,30.12,NNE,32,0.0,0.0,73,0.00,,---,0.00,VWS V13.00,2013-04-20 23:52:00,
2013-04-20 15:57:00,36.7,28.9,30.12,SE,139,0.0,0.0,73,0.00,,---,0.00,VWS V13.00,2013-04-20 23:57:00,
2013-04-20 16:02:00,37.0,29.2,30.12,ENE,61,0.0,0.0,73,0.00,,---,0.00,VWS V13.00,2013-04-21 00:02:00,
2013-04-20 16:06:00,37.0,29.2,30.12,ENE,73,0.0,0.0,73,0.00,,---,0.00,VWS V13.00,2013-04-21 00:06:00,
2013-04-20 16:11:00,37.2,26.9,30.12,South,187,0.0,0.0,66,0.00,,---,0.00,VWS V13.00,2013-04-21 00:11:00,
2013-04-20 16:16:00,37.2,26.2,30.12,SE,135,0.0,0.0,64,0.00,,---,0.00,VWS V13.00,2013-04-21 00:16:00,
2013-04-20 16:21:00,37.2,26.2,30.12,ENE,68,0.0,0.0,64,0.00,,---,0.00,VWS V13.00,2013-04-21 00:21:00,
2013-04-20 16:26:00,37.0,25.6,30.12,East,86,0.0,0.0,63,0.00,,---,0.00,VWS V13.00,2013-04-21 00:26:00,
2013-04-20 16:31:00,36.7,25.3,30.12,SE,133,0.0,0.0,63,0.00,,---,0.00,VWS V13.00,2013-04-21 00:31:00,
2013-04-20 16:36:00,36.9,24.7,30.12,ENE,71,0.0,0.0,61,0.00,,---,0.00,VWS V13.00,2013-04-21 00:36:00,
2013-04-20 16:41:00,36.9,25.5,30.12,East,100,0.0,0.0,63,0.00,,---,0.00,VWS V13.00,2013-04-21 00:41:00,
2013-04-20 16:46:00,36.9,25.8,30.12,ENE,62,0.0,0.0,64,0.00,,---,0.00,VWS V13.00,2013-04-21 00:46:00,
2013-04-20 16:51:00,36.9,25.5,30.12,NE,51,0.0,0.0,63,0.00,,---,0.00,VWS V13.00,2013-04-21 00:51:00,
2013-04-20 16:56:00,37.0,26.0,30.12,East,88,0.0,0.0,64,0.00,,---,0.00,VWS V13.00,2013-04-21 00:56:00,
2013-04-20 17:01:00,37.0,26.0,30.12,East,84,0.0,0.0,64,0.00,,---,0.00,VWS V13.00,2013-04-21 01:01:00,
2013-04-20 17:06:00,37.2,25.4,30.12,ENE,71,0.0,0.0,62,0.00,,---,0.00,VWS V13.00,2013-04-21 01:06:00,
2013-04-20 17:11:00,37.6,25.8,30.12,East,88,0.0,0.0,62,0.00,,---,0.00,VWS V13.00,2013-04-21 01:11:00,
2013-04-20 17:16:00,37.6,25.0,30.12,SE,137,0.0,0.0,60,0.00,,---,0.00,VWS V13.00,2013-04-21 01:16:00,
2013-04-20 17:21:00,37.6,23.7,30.12,ENE,77,0.0,0.0,57,0.00,,---,0.00,VWS V13.00,2013-04-21 01:21:00,
2013-04-20 17:26:00,37.6,23.7,30.12,East,98,0.0,0.0,57,0.00,,---,0.00,VWS V13.00,2013-04-21 01:26:00,
2013-04-20 17:31:00,37.9,24.1,30.12,ESE,107,0.0,0.0,57,0.00,,---,0.00,VWS V13.00,2013-04-21 01:31:00,
2013-04-20 17:36:00,37.8,23.5,30.12,ESE,104,0.0,0.0,56,0.00,,---,0.00,VWS V13.00,2013-04-21 01:36:00,
2013-04-20 17:41:00,37.8,23.5,30.12,SSE,152,0.0,0.0,56,0.00,,---,0.00,VWS V13.00,2013-04-21 01:41:00,
2013-04-20 17:46:00,37.6,22.9,30.12,ENE,66,0.0,0.0,55,0.00,,---,0.00,VWS V13.00,2013-04-21 01:46:00,
2013-04-20 17:51:00,37.4,23.6,30.09,ENE,66,0.0,0.0,57,0.00,,---,0.00,VWS V13.00,2013-04-21 01:51:00,
2013-04-20 17:56:00,37.4,22.7,30.09,ESE,107,0.0,0.0,55,0.00,,---,0.00,VWS V13.00,2013-04-21 01:56:00,
2013-04-20 18:01:00,37.6,23.3,30.09,East,80,0.0,0.0,56,0.00,,---,0.00,VWS V13.00,2013-04-21 02:01:00,
2013-04-20 18:06:00,37.6,23.3,30.09,ESE,117,0.0,0.0,56,0.00,,---,0.00,VWS V13.00,2013-04-21 02:06:00,
2013-04-20 18:11:00,37.6,23.7,30.09,East,100,0.0,0.0,57,0.00,,---,0.00,VWS V13.00,2013-04-21 02:11:00,
2013-04-20 18:16:00,37.6,23.7,30.09,ESE,117,0.0,0.0,57,0.00,,---,0.00,VWS V13.00,2013-04-21 02:16:00,
2013-04-20 18:21:00,37.9,23.2,30.09,SE,139,0.0,0.0,55,0.00,,---,0.00,VWS V13.00,2013-04-21 02:21:00,
2013-04-20 18:26:00,37.9,23.2,30.09,SE,140,0.0,0.0,55,0.00,,---,0.00,VWS V13.00,2013-04-21 02:26:00,
2013-04-20 18:31:00,37.9,23.2,30.09,ENE,74,0.0,0.0,55,0.00,,---,0.00,VWS V13.00,2013-04-21 02:31:00,
2013-04-20 18:36:00,37.9,23.2,30.09,East,83,0.0,0.0,55,0.00,,---,0.00,VWS V13.00,2013-04-21 02:36:00,
2013-04-20 18:41:00,37.9,23.2,30.09,ESE,105,0.0,0.0,55,0.00,,---,0.00,VWS V13.00,2013-04-21 02:41:00,
2013-04-20 18:46:00,37.9,23.2,30.09,East,86,0.0,0.0,55,0.00,,---,0.00,VWS V13.00,2013-04-21 02:46:00,
2013-04-20 18:51:00,37.9,23.2,30.09,ESE,113,0.0,0.0,55,0.00,,---,0.00,VWS V13.00,2013-04-21 02:51:00,
2013-04-20 18:56:00,37.9,23.2,30.09,ENE,70,0.0,0.0,55,0.00,,---,0.00,VWS V13.00,2013-04-21 02:56:00,
2013-04-20 19:01:00,37.9,22.8,30.09,East,90,0.0,0.0,54,0.00,,---,0.00,VWS V13.00,2013-04-21 03:01:00,
2013-04-20 19:06:00,37.8,22.6,30.09,ENE,65,0.0,0.0,54,0.00,,---,0.00,VWS V13.00,2013-04-21 03:06:00,
2013-04-20 19:11:00,37.9,22.8,30.09,ENE,74,0.0,0.0,54,0.00,,---,0.00,VWS V13.00,2013-04-21 03:11:00,
2013-04-20 19:16:00,37.9,22.8,30.09,ENE,74,0.0,0.0,54,0.00,,---,0.00,VWS V13.00,2013-04-21 03:16:00,
2013-04-20 19:21:00,37.9,22.8,30.09,ENE,58,0.0,0.0,54,0.00,,---,0.00,VWS V13.00,2013-04-21 03:21:00,
2013-04-20 19:26:00,37.9,22.4,30.09,ENE,70,0.0,0.0,53,0.00,,---,0.00,VWS V13.00,2013-04-21 03:26:00,
2013-04-20 19:31:00,37.9,22.4,30.09,ENE,68,0.0,0.0,53,0.00,,---,0.00,VWS V13.00,2013-04-21 03:31:00,
2013-04-20 19:36:00,37.9,22.4,30.09,ENE,78,0.0,0.0,53,0.00,,---,0.00,VWS V13.00,2013-04-21 03:36:00,
2013-04-20 19:41:00,37.8,22.2,30.09,ENE,62,0.0,0.0,53,0.00,,---,0.00,VWS V13.00,2013-04-21 03:41:00,
2013-04-20 19:46:00,37.8,22.2,30.09,East,81,0.0,0.0,53,0.00,,---,0.00,VWS V13.00,2013-04-21 03:46:00,
2013-04-20 19:51:00,37.6,21.6,30.09,SSW,193,0.0,0.0,52,0.00,,---,0.00,VWS V13.00,2013-04-21 03:51:00,
2013-04-20 19:56:00,37.4,20.9,30.09,ENE,74,0.0,0.0,51,0.00,,---,0.00,VWS V13.00,2013-04-21 03:56:00,
2013-04-20 20:01:00,37.4,20.9,30.09,East,81,0.0,0.0,51,0.00,,---,0.00,VWS V13.00,2013-04-21 04:01:00,
2013-04-20 20:06:00,37.4,21.4,30.06,ENE,69,0.0,0.0,52,0.00,,---,0.00,VWS V13.00,2013-04-21 04:06:00,
2013-04-20 20:11:00,37.0,21.5,30.06,ENE,69,0.0,0.0,53,0.00,,---,0.00,VWS V13.00,2013-04-21 04:11:00,
2013-04-20 20:16:00,36.9,21.3,30.06,East,91,0.0,0.0,53,0.00,,---,0.00,VWS V13.00,2013-04-21 04:16:00,
2013-04-20 20:21:00,36.9,20.9,30.06,ESE,110,0.0,0.0,52,0.00,,---,0.00,VWS V13.00,2013-04-21 04:21:00,
2013-04-20 20:26:00,36.9,20.9,30.06,East,82,0.0,0.0,52,0.00,,---,0.00,VWS V13.00,2013-04-21 04:26:00,
2013-04-20 20:31:00,36.9,20.4,30.06,ENE,77,0.0,0.0,51,0.00,,---,0.00,VWS V13.00,2013-04-21 04:31:00,
2013-04-20 20:36:00,36.9,20.4,30.06,ENE,60,0.0,0.0,51,0.00,,---,0.00,VWS V13.00,2013-04-21 04:36:00,
2013-04-20 20:41:00,37.0,20.6,30.06,NE,35,0.0,0.0,51,0.00,,---,0.00,VWS V13.00,2013-04-21 04:41:00,
2013-04-20 20:46:00,37.0,20.6,30.06,NE,49,0.0,0.0,51,0.00,,---,0.00,VWS V13.00,2013-04-21 04:46:00,
2013-04-20 20:51:00,36.9,20.4,30.06,ENE,62,0.0,0.0,51,0.00,,---,0.00,VWS V13.00,2013-04-21 04:51:00,
2013-04-20 20:56:00,36.9,20.4,30.06,NNE,24,0.0,0.0,51,0.00,,---,0.00,VWS V13.00,2013-04-21 04:56:00,
2013-04-20 21:01:00,36.7,21.2,30.06,NE,56,0.0,0.0,53,0.00,,---,0.00,VWS V13.00,2013-04-21 05:01:00,
2013-04-20 21:06:00,36.5,20.6,30.06,NE,55,0.0,0.0,52,0.00,,---,0.00,VWS V13.00,2013-04-21 05:06:00,
2013-04-20 21:11:00,36.7,20.3,30.06,ENE,70,0.0,0.0,51,0.00,,---,0.00,VWS V13.00,2013-04-21 05:11:00,
2013-04-20 21:16:00,36.7,20.3,30.06,ENE,69,0.0,0.0,51,0.00,,---,0.00,VWS V13.00,2013-04-21 05:16:00,
2013-04-20 21:21:00,36.7,20.3,30.06,ENE,75,0.0,0.0,51,0.00,,---,0.00,VWS V13.00,2013-04-21 05:21:00,
2013-04-20 21:26:00,36.3,20.4,30.06,ENE,58,0.0,0.0,52,0.00,,---,0.00,VWS V13.00,2013-04-21 05:26:00,
2013-04-20 21:31:00,36.3,20.4,30.06,North,0,0.0,0.0,52,0.00,,---,0.00,VWS V13.00,2013-04-21 05:31:00,
2013-04-20 21:36:00,36.1,20.2,30.06,ENE,62,0.0,0.0,52,0.00,,---,0.00,VWS V13.00,2013-04-21 05:36:00,
2013-04-20 21:41:00,36.1,20.2,30.06,ENE,58,0.0,0.0,52,0.00,,---,0.00,VWS V13.00,2013-04-21 05:41:00,
2013-04-20 21:46:00,36.0,21.4,30.06,NNE,26,0.0,0.0,55,0.00,,---,0.00,VWS V13.00,2013-04-21 05:46:00,
2013-04-20 21:51:00,36.0,21.4,30.06,East,80,0.0,0.0,55,0.00,,---,0.00,VWS V13.00,2013-04-21 05:51:00,
2013-04-20 21:56:00,35.8,21.6,30.06,East,83,0.0,0.0,56,0.00,,---,0.00,VWS V13.00,2013-04-21 05:56:00,
2013-04-20 22:01:00,35.6,22.7,30.06,East,87,0.0,0.0,59,0.00,,---,0.00,VWS V13.00,2013-04-21 06:01:00,
2013-04-20 22:06:00,35.6,22.7,30.06,ENE,62,0.0,0.0,59,0.00,,---,0.00,VWS V13.00,2013-04-21 06:06:00,
2013-04-20 22:11:00,35.8,24.4,30.06,ENE,63,0.0,0.0,63,0.00,,---,0.00,VWS V13.00,2013-04-21 06:11:00,
2013-04-20 22:16:00,36.0,24.6,30.06,ENE,69,0.0,0.0,63,0.00,,---,0.00,VWS V13.00,2013-04-21 06:16:00,
2013-04-20 22:21:00,36.0,24.6,30.06,NNE,28,0.0,0.0,63,0.00,,---,0.00,VWS V13.00,2013-04-21 06:21:00,
2013-04-20 22:26:00,36.1,24.0,30.06,ENE,69,0.0,0.0,61,0.00,,---,0.00,VWS V13.00,2013-04-21 06:26:00,
2013-04-20 22:31:00,35.8,24.4,30.06,ENE,72,0.0,0.0,63,0.00,,---,0.00,VWS V13.00,2013-04-21 06:31:00,
2013-04-20 22:36:00,35.6,24.6,30.06,ENE,68,0.0,0.0,64,0.00,,---,0.00,VWS V13.00,2013-04-21 06:36:00,
2013-04-20 22:41:00,35.8,24.8,30.06,ENE,66,0.0,0.0,64,0.00,,---,0.00,VWS V13.00,2013-04-21 06:41:00,
2013-04-20 22:46:00,35.8,24.8,30.06,East,96,0.0,0.0,64,0.00,,---,0.00,VWS V13.00,2013-04-21 06:46:00,
2013-04-20 22:51:00,35.8,27.3,30.06,ENE,76,0.0,0.0,71,0.00,,---,0.00,VWS V13.00,2013-04-21 06:51:00,
2013-04-20 22:56:00,35.8,27.3,30.06,ESE,112,0.0,0.0,71,0.00,,---,0.00,VWS V13.00,2013-04-21 06:56:00,
2013-04-20 23:01:00,36.0,28.5,30.06,NNE,24,0.0,0.0,74,0.00,,---,0.00,VWS V13.00,2013-04-21 07:01:00,
2013-04-20 23:06:00,36.1,28.3,30.06,ENE,77,0.0,0.0,73,0.00,,---,0.00,VWS V13.00,2013-04-21 07:06:00,
2013-04-20 23:11:00,36.1,28.3,30.06,ENE,64,0.0,0.0,73,0.00,,---,0.00,VWS V13.00,2013-04-21 07:11:00,
2013-04-20 23:16:00,36.1,28.3,30.06,East,82,0.0,0.0,73,0.00,,---,0.00,VWS V13.00,2013-04-21 07:16:00,
2013-04-20 23:21:00,36.0,28.8,30.06,ENE,61,0.0,0.0,75,0.00,,---,0.00,VWS V13.00,2013-04-21 07:21:00,
2013-04-20 23:26:00,35.8,29.6,30.06,ESE,118,0.0,0.0,78,0.00,,---,0.00,VWS V13.00,2013-04-21 07:26:00,
2013-04-20 23:31:00,35.6,29.4,30.06,SSE,149,0.0,0.0,78,0.00,,---,0.00,VWS V13.00,2013-04-21 07:31:00,
2013-04-20 23:36:00,35.6,29.4,30.06,NE,47,0.0,0.0,78,0.00,,---,0.00,VWS V13.00,2013-04-21 07:36:00,
2013-04-20 23:41:00,35.6,29.4,30.06,ESE,120,0.0,0.0,78,0.00,,---,0.00,VWS V13.00,2013-04-21 07:41:00,
2013-04-20 23:46:00,35.2,30.0,30.06,ENE,64,0.0,0.0,81,0.00,,---,0.00,VWS V13.00,2013-04-21 07:46:00,
2013-04-20 23:51:00,34.9,30.2,30.06,ESE,108,0.0,0.0,83,0.00,,---,0.00,VWS V13.00,2013-04-21 07:51:00,
2013-04-20 23:56:00,34.9,30.5,30.06,East,90,0.0,0.0,84,0.00,,---,0.00,VWS V13.00,2013-04-21 07:56:00,